www.pogodaiklimat.ru

Погода и климат >> Архив погоды >> Туркменистан >> Сарагт


АРХИВ ПОГОДЫ в Сарагте

Время (UTC), дата Ветер
(напр.,м/с)
 
Видим.   Явления Облачность Т
(С)
Тd
(С)
f
(%)
Тe
(С)
Тes
(С)
Комфортность P
(гПа)
Po
(гПа)
Тmin
(С)
Tmax
(С)
R
(мм)
R24
(мм)
S
(см)
21 15.09 ЮЗ 1 20 км ясно +19.2 +8.4 50 +21 +21 комфорт 1018.5 986.3
00 16.09 З 1 20 км ясно +17.0 +7.0 52 +18 +18 1018.9 986.5
03 16.09 ЮЗ 1 20 км ясно +15.4 +6.4 55 +16 +18 1019.6 987.1 +15.3
06 16.09 С 1 20 км ясно +26.3 +5.8 27 +26 +39 жарко 1020.3 988.8 +15.3
09 16.09 С 2 20 км ясно +29.6 +7.3 25 +29 +42 жарко 1018.3 987.3
12 16.09 С 3 20 км ясно +30.9 +5.6 20 +29 +32 жарко 1017.1 986.2
15 16.09 С 2 20 км ясно +26.9 +5.4 25 +26 +26 жарко 1017.3 986.6 +32.0
18 16.09 С 2 20 км ясно +22.5 +5.6 33 +23 +23 комфорт 1018.8 987.1 +32.0
21 16.09 З 2 20 км ясно +19.4 +6.4 43 +21 +21 комфорт 1018.7 986.7
00 17.09 З 2 20 км ясно +17.1 +6.8 51 +17 +17 1018.0 985.6
03 17.09 З 2 20 км ясно +16.2 +1.9 38 +16 +18 1018.4 985.9 +16.1
06 17.09 ЮВ 2 20 км ясно +27.1 +1.3 19 +25 +36 комфорт 1017.2 985.9 +16.1
09 17.09 Ю 2 20 км ясно +31.7 +3.8 17 +29 +43 жарко 1013.8 983.1
12 17.09 Ю 2 20 км ясно +32.8 +4.8 17 +30 +34 жарко 1011.0 980.5
15 17.09 Ю 1 20 км ясно +27.3 +5.6 25 +26 +26 жарко 1011.1 980.0 +33.8
18 17.09 ЮВ 2 20 км ясно +22.9 +2.3 26 +22 +22 комфорт 1011.4 979.9 +33.8
21 17.09 Ю 1 20 км ясно +19.6 +5.3 39 +21 +21 комфорт 1010.1 978.4
00 18.09 В 2 20 км ясно +18.1 +5.3 43 +19 +19 1009.1 977.1
03 18.09 Ю 2 20 км ясно +19.2 +9.7 54 +21 +22 комфорт 1008.2 941.0 +16.0
06 18.09 ЮЗ 1 20 км ясно +34.1 +9.8 23 +33 +46 жарко 1008.1 977.9 +18.0
09 18.09 ЮЗ 1 20 км ясно +40.3 +6.1 13 +38 +53 опасность
солнечного
удара
1006.8 977.1
12 18.09 С 2 20 км ясно +41.5 +2.9 9 +38 +41 очень
жарко
1007.2 977.7
15 18.09 С 7 20 км ясно +35.0 +4.6 15 +32 +32 жарко 1007.0 976.8 +42.8
18 18.09 СЗ 2 20 км ясно +28.3 +7.3 27 +28 +28 жарко 1013.6 982.6 +42.8
21 18.09 СЗ 1 20 км ясно +24.5 +10.0 40 +25 +25 комфорт 1015.0 983.6
00 19.09 СЗ 1 20 км ясно +22.9 +10.9 47 +25 +25 комфорт 1015.4 983.8
03 19.09 СЗ 1 20 км 6/0
[Ci sp]
+23.3 +12.5 51 +26 +27 жарко 1015.9 984.4 +22.8
06 19.09 штиль 0 20 км 4/0
[Ci sp]
+30.1 +14.5 39 +32 +46 жарко 1015.4 984.5 +22.8
09 19.09 В 1 20 км 3/0
[Ci sp]
+33.8 +15.4 33 +36 +50 очень
душно
1013.3 982.9
12 19.09 В 1 20 км 4/0
[Ci sp]
+36.0 +13.0 25 +36 +40 очень
жарко
1010.9 980.8
15 19.09 ЮВ 2 20 км 8/0
[Ac cast]
+32.3 +13.2 31 +33 +33 жарко 1011.5 981.0 +37.1
18 19.09 С 2 20 км 8/0
[Ac cast]
+27.2 +12.2 39 +28 +28 жарко 1012.2 981.2 +37.1
21 19.09 С 2 20 км 6/0
[Ac cast]
+25.1 +11.3 42 +26 +26 жарко 1012.5 981.3
00 20.09 СЗ 2 20 км 6/0
[Ac cast]
+23.1 +12.2 50 +26 +26 жарко 1013.0 981.5
03 20.09 СЗ 3 20 км 4/0
[Ac cast]
+20.3 +10.7 54 +22 +23 комфорт 1014.2 982.4 +20.2
06 20.09 СЗ 2 20 км 4/0
[Ci sp]
+29.1 +10.3 31 +29 +39 жарко 1014.2 983.3 +20.2
09 20.09 С 2 20 км 3/0
[Ac cast]
+34.8 +9.2 21 +33 +44 жарко 1012.6 982.2
12 20.09 С 1 20 км ясно +35.5 +7.7 18 +34 +37 очень
жарко
1010.4 980.2
15 20.09 С 2 20 км ясно +31.7 +8.9 24 +31 +31 жарко 1011.9 980.6 +36.6
18 20.09 СЗ 1 20 км ясно +25.3 +10.6 40 +26 +26 жарко 1012.9 981.6 +36.6
21 20.09 С 2 20 км ясно +23.0 +9.8 43 +25 +25 комфорт 1011.4 979.9
00 21.09 С 1 20 км ясно +21.3 +10.3 49 +23 +23 комфорт 1010.2 978.5
03 21.09 Ю 2 20 км ясно +20.7 +9.0 47 +23 +24 комфорт 1009.4 977.9 +20.7
06 21.09 З 5 20 км ясно +32.3 +8.9 24 +31 +37 жарко 1007.3 976.9 +20.7
09 21.09 З 4 20 км ясно +34.3 +7.8 20 +33 +41 жарко 1007.9 977.7
12 21.09 Ю 3 20 км ясно +40.9 +11.4 17 +40 +42 очень
жарко
1010.4 980.8
15 21.09 ЮВ 1 20 км ясно +36.2 +8.0 18 +34 +34 очень
жарко
1005.7 975.7 +41.7
18 21.09 ЮВ 1 20 км ясно +30.4 +6.8 23 +29 +29 жарко 1002.1 971.7 +41.7
21 21.09 Ю 1 20 км ясно +28.7 +7.4 26 +28 +28 жарко 1002.3 971.7
00 22.09 Ю 1 20 км ясно +26.9 +8.2 31 +27 +27 жарко 1002.4 971.6
03 22.09 С 7 20 км ясно +25.3 +8.1 33 +25 +26 комфорт 1005.8 974.8 +25.2
06 22.09 СЗ 9 10 км ясно +27.1 +8.9 32 +27 +28 жарко 1011.2 980.1 +25.2
09 22.09 СЗ 6 20 км ясно +30.0 +10.2 29 +30 +35 жарко 1011.4 980.6
12 22.09 С 7 20 км ясно +29.6 +10.3 30 +30 +30 жарко 1012.8 981.9
15 22.09 СЗ 7 20 км ясно +25.2 +8.2 34 +26 +26 жарко 1017.1 985.6 +30.9

 

Местоположение метеостанции Сарагт (Ахалский велаят, Туркменистан): широта 36.53 долгота 61.22 высота над уровнем моря 275 м.

В архиве по умолчанию представлена погода в Сарагте за последнюю неделю. Архивные данные за месяц целиком и за предыдущие месяцы, начиная с января 2011 года, Вы можете получить, выбрав интересующий диапазон дат из раскрывающегося списка и нажав кнопку "Ввод!".


*Определитесь, кто Вы:
робот инопланетянин человек

Внимание! Время в таблицах - всемирное. Для получения местного времени необходимо прибавить поправку, которая равна 5 ч.

Смотрите также архив погоды в соседних городах и на ближайших метеорологических станциях:

Погода в Серахсе (Иран) (4 км)
Погода в Теджене (Ахалский велаят, Туркменистан) (113 км)
Погода в Елетене (Марыйский велаят, Туркменистан) (137 км)
Погода в Мешхеде (Иран) (145 км)
Погода в Байрамалы (Ахалский велаят, Туркменистан) (146 км)
Погода в Тагтабазаре (Марыйский велаят, Туркменистан) (166 км)
Погода в Каке (Ахалский велаят, Туркменистан) (168 км)
Погода в Серхетабаде (Марыйский велаят, Туркменистан) (172 км)
Погода в Багтыярлыке (Марыйский велаят, Туркменистан) (222 км)
Погода в Торбете-Хейдерие (Иран) (228 км)

Пояснения к столбцам:

Ветер - указаны скорость ветра в м/с - средняя за 10 мин, порывы в срок и между сроками (в фигурных скобках) и направление, откуда дует ветер: С - северный, СВ - северо-восточный, В - восточный, ЮВ - юго-восточный, Ю - южный, ЮЗ - юго-западный, З - западный, СЗ - северо-западный.
Видимость - горизонтальная дальность видимости в метрах или километрах. При видимости от 1 до 10 км при отсутствии осадков обычно наблюдается дымка, при ухудшении видимости до 1 км и менее - туман. В сухую погоду видимость может ухудшаться дымом, пылью или мглою.
Явления - указаны атмосферные явления, наблюдавшиеся в срок или в последний час перед сроком; фигурными скобками обозначены явления, наблюдавшиеся между сроками (за 1-3 часа до срока); квадратными скобками обозначены град или гололедные отложения с указанием их диаметра в мм.
Облачность - указаны через наклонную черту общая и нижняя облачность в баллах и высота нижней границы облаков в метрах; квадратными скобками обозначены формы облаков: Ci - перистые, Cs - перисто-слоистые, Cc - перисто-кучевые, Ac - высококучевые, As - высокослоистые, Sc - слоисто-кучевые, Ns - слоисто-дождевые, Cu - кучевые, Cb - кучево-дождевые. Подробнее классификацию облаков см. в Атласе облаков (PDF).
T - Температура воздуха - температура, измеренная на высоте 2 м над землей.
Td - Температура точки росы - температура, при понижении до которой содержащийся в воздухе водяной пар достигнет насыщения.
f - Относительная влажность воздуха - влажноcть воздуха, измеренная на высоте 2 м над землей.
Te - Эффективная температура - температура, которую ощущает одетый по сезону человек в тени. Характеристика душности погоды. При расчете учитывается влияние влажности воздуха и скорости ветра на теплоощущения человека.
Tes - Эффективная температура на солнце - температура, которую ощущает человек, с поправкой на солнечный нагрев. Характеристика знойности погоды. Зависит от высоты солнца над горизонтом, облачности и скорости ветра. Ночью, в пасмурную погоду, а также при ветре 12 м/с и более поправка равна нулю.
P - Атмосферное давление - приведенное к уровню моря атмосферное давление.
Po - Атмосферное давление - измеренное на уровне метеостанции атмосферное давление.
Tmin - Минимальная температура - минимум температуры воздуха на высоте 2 м над землей.
Tmax - Максимальная температура - максимум температуры воздуха на высоте 2 м над землей.
R - Количество осадков - Количество выпавших осадков за период времени, мм. При наведении курсора мыши на число - период времени, за который выпало указанное количество осадков.
R24 - Количество осадков - Количество выпавших осадков за 24 часа, мм.
S - Снежный покров - Высота снежного покрова, см. При наведении курсора мыши на число - состояние снежного покрова и степень покрытия местности в баллах.